Airfield :
LOGIN :

Register | Disclaimer

   EN    FR    IT 

 










Legend :    VFR   Marginal VFR   IFR   Intensive IFR   Very Intensive IFR
Visi :
Ceiling :
>= 8 km
>= 3000ft
5 to 8 km
1000 to 3000 ft
1500m to 5 km
500 to 1000 ft
800 to 1500m
200 to 500 ft
< 800m
< 200 ft
Symbols :   Thunderstorms  Fog  Heavy snow  Heavy precipitations  Wind > 20 kt
SIGMETs :     Misc.  Thunderstorms  Icing  Turbulence  Mountain Waves  Volcanic Ashes







- Airport Elevation : 158 ft
- IATA code : QAR


EHDL - Deelen Airbase

CURRENT METAR :
  • 221155Z AUTO 06006KT 350V160 9999 BKN270 25/09 Q1012 BLU

EXPIRED METARs :
  • 221125Z AUTO 07005KT 270V070 9999 BKN190 BKN310 24/10 Q1012 BLU
  • 221055Z AUTO 06005KT 330V140 9999 OVC190 24/11 Q1012 BLU
  • 221025Z AUTO VRB05KT 9999 OVC190 23/10 Q1012 BLU
  • 220955Z AUTO VRB07KT 9999 OVC190 23/11 Q1012 BLU
  • 220925Z AUTO 03007KT 330V100 9999 OVC190 22/12 Q1013 BLU

Expired Forecast.
No reported NOTAMs for that airfield.



MET'MAP, your aeronautical weather chart ! - Copyright ORBIFLY December 2007 - Disclaimer

ORBIFLY MET'MAP TEAM :

Programming & Development : Alexandra Zaïnal
Concept & Development : Baudouin d'Aumeries
Co-Development & Prog : Marc-Olivier Méhu
Technical & hardware support : Manuel Goepfert

Contact : metmap@orbifly.com




SOURCES & CREDITS :

   NOAA